Bolingbrook's Clow International Airport

Jump to: basic info | weather | frequencies | runways | comments

Related pages: nearby airports | nearby navaids | notams | map

Basic information (top)

Codes: K1C5 1C5
Location: lon 41.695999, lat -88.129204, elev 670 ft / 204 m msl
Status: small_airport
Scheduled airline service: no
Links: Wikipedia Mobile

Weather (top)

Current conditions for Lewis University Airport 6nm (10km) SSE (rec'd 2014/11/23 07:55Z):

KLOT 230755Z AUTO 19010KT 10SM SCT013 OVC019 10/08 A2983

Airport forecast for Dupage Airport 14nm (26km) NNW (rec'd 2014/11/23 06:42Z):

TAF KDPA 230540Z 2306/2406 20012KT 6SM BR BKN020 OVC040 WS020/21045KT 
     FM231200 20013KT 6SM BR VCSH BKN018 OVC030 
     FM231600 18014G20KT 6SM -SHRA BR SCT007 BKN015 OVC025 
     FM232200 15012G20KT 2SM RA BR OVC006 
     FM240300 18010KT 2SM RA BR OVC004

Frequencies (top)

Verify before use: may be inaccurate or out of date.

A/D: 119.35 MHz (CHICAGO APP/DEP)
CTAF: 122.9 MHz (CTAF)

Runways (top)

18/36: 3,362 x 50 ft (1,025 x 15 m) — other (ASPH-G) — lighted — threshold 18 displaced 190 ft (58 m) — threshold 36 displaced 130 ft (40 m)

Latest comments (top)

1C5 - Clow International - First Starts: I started primary training here a long ... [read]

More... (top)

See also NOTAMs and nearby airports and navaids, or visit the Bolingbrook's Clow International Airport page at the main OurAirports website..